DECAYED
Showing default

RUZAEVKA-390, 61766 (Decayed)

Orbit data source: Space-Track

RUZAEVKA-390, 61766 was a payload satellite owned by Saransk PT (CIS) in LEO that was launched on Mon, 04 Nov 2024 UTC via a SOYUZ-2-1B launch vehicle from the Vostochny Cosmodrome (VOSTO). Payload-class satellites include a variety of spacecraft equipped with specific instruments for various scientific and technological missions. These include communications satellites like Starlink; space stations such as the ISS; scientific satellites like the Hubble; Earth observation satellites from companies like Planet Labs, Umbra, and HawkEye 360; GPS; miniature CubeSats for education and research; and military/defense satellites.

Not visible in the next 10 days
Identifier
61766, 2024-199AH
Orbit
Decayed
Country
Flag of CISCIS
Related business
Manufacturer
Yugo-Zapad. GU
Mission
Decayed Amateur Technology
Bus & Motor
CUBESAT 3U, Unknown motor
Mass
5 kg wet, 5 kg dry
Launch date (UTC)
2024-11-04 (2 years ago)
Launch vehicle
SOYUZ-2-1B
Launch site
Vostochny Cosmodrome (VOSTO)
Object type
Payload
Rocket body
Debris
Shape & HBR
Box, 0.1 m
Radar Cross Section
0.035 m², Small (<0.1 m²)

Expand to show TLE details & history
Last TLE update: 2 months ago

TLE from 2 months ago
0 RUZAEVKA-390
1 61766U 24199AH  26069.38481491  .11440096  25250-5  56352-3 0  9990
2 61766  97.2628 311.9876 0007678 247.6224 112.4264 16.42346068119643
Epoch: 2026-03-10T09:14Z
TLE epoch observation values (Epoch: 2026-03-10T09:14:08.008Z)
Latitude
0.00001°
Longitude
5.39006°
Altitude
164.746 km
Speed
7.806 km/s
True Right ascension
20h 47m 57s
True Declination
0° 00' 00"
Sunlit
Object was in daylight at epoch
Visualization orbit readout
Latitude
Unknown
Longitude
Unknown
Altitude
Unknown
Speed
Unknown
Apparent Right ascension
Unknown
Apparent Declination
Unknown
Sunlit
N/A
Visualization observer readout
Local Sidereal Time
19:46:34
Azimuth
Unknown
Elevation
Unknown
Doppler factor
Unknown
Orbital elements
Apogee altitude
161.385 km
Perigee altitude
151.35 km
Semi-major axis
6,534.504 km
Eccentricity
0.00077
Inclination
97.2628°
RAAN
311.9876°
Arg. of periapsis
247.6224°
True anomaly
112.5077°
Mean anomaly
112.4264°
Eccentric anomaly
112.46705°
Mean motion
4.10889 °/min
Orbital period
87.61 mins
BSTAR
0.00056352
Loading maneuver chart data...
Computing Atmospheric mass density...
Loading historical data...
Loading historical data...
Loading historical data...
Loading historical data...
Loading historical data...
Loading historical data...
Loading historical data...

Documentation

Showing up to 5 results
|